Skip Page Navigation
NASA JPL Caltech
NASA Logo - Jet Propulsion Laboratory + View the NASA Portal
+ Near-Earth Object (NEO) Project
Search JPL
JPL Home Earth Solar System Stars & Galaxies Technology
JPL Solar System Dynamics
BODIES ORBITS EPHEMERIDES TOOLS PHYSICAL DATA DISCOVERY FAQ SITE MAP
JPL Small-Body Database Browser
Search: [ help ]  
7307 Takei (1994 GT9)
Classification: Main-belt Asteroid          SPK-ID: 2007307
Ephemeris | Orbit Diagram | Orbital Elements | Physical Parameters | Discovery Circumstances ]

[ show orbit diagram ]
Orbital Elements at Epoch 2455200.5 (2010-Jan-04.0) TDB
Reference: MPO169583 (heliocentric ecliptic J2000)
 Element Value Uncertainty (1-sigma)   Units 
e 0.0855138 n/a  
a 2.7413805 n/a AU
q 2.5069546 n/a AU
i 6.98705 n/a deg
node 43.05390 n/a deg
peri 120.67473 n/a deg
M 206.88204 n/a deg
tp 2455905.6411192
(2011-Dec-10.14111920)
n/a JED
period 1657.8773837
4.54
n/a
n/a
d
yr
n 0.21714513 n/a deg/d
Q 2.9758064 n/a AU
  Orbit Determination Parameters
   # obs. used (total)      770  
   first obs. used      1985-??-??  
   last obs. used      2009-12-19  
   # oppositions      15  
   planetary ephem.      DE403  
   quality code      0  
   fit RMS      0.52  
   data source      MPC:mpn  
   producer      MPC  

Additional Information
 T_jup = 3.334 

Ephemeris | Orbit Diagram | Orbital Elements | Physical Parameters | Discovery Circumstances ]

Physical Parameter Table
Parameter Symbol Value Units Sigma Reference Notes
absolute magnitude H 12.3 mag n/a PDS3 (MPC 28291)  

7307 Takei           Discovered 1994 Apr. 13 by Y. Shimizu and T. Urata at Nachi-Katsuura.
George Takei (b. 1937) is an actor best known for his role as Mr. Sulu in the original Star Trek television series. He also has a lengthy record of public service through his involvement with organizations such as the Japanese American Citizens League and the Human Rights Campaign. The name was suggested by T. H. Burbine.
NOTE: some special characters may not display properly (any characters within {} are an attempt to place the proper accent above a character)
Reference: 20070926/MPCPages.arcLast Updated: 2007-09-30

Alternate Designations
 1994 GT9 = 1978 VJ16 = 1985 GJ1 = 1985 JW = 1991 RQ20 
Ephemeris | Orbit Diagram | Orbital Elements | Physical Parameters | Discovery Circumstances ]
ABOUT SSD CREDITS/AWARDS PRIVACY/COPYRIGHT GLOSSARY LINKS
FirstGov 2010-Feb-10 06:10 UT
(server date/time)  
NASA Home Page
Site Manager:   Donald K. Yeomans
Webmaster  Alan B. Chamberlin